Weather History for KSTL - June, 2013

Change the Weather History Date:

Monday, June 10, 2013

  Actual Average Record
Temperature  
Mean Temperature 73 °F 75 °F  
Max Temperature 81 °F 84 °F 100 °F (1953)
Min Temperature 64 °F 65 °F 48 °F (1972)
Degree Days  
Heating Degree Days 0 0  
Month to date heating degree days 1 3  
Since 1 June heating degree days 1 3  
Since 1 July heating degree days 4488 4533  
Cooling Degree Days 8 10  
Month to date cooling degree days 45 84  
Year to date cooling degree days 256 258  
Since 1 June cooling degree days 45 84  
Growing Degree Days 22 (Base 50)    
Moisture  
Dew Point 61 °F    
Average Humidity 72    
Maximum Humidity 93    
Minimum Humidity 51    
Precipitation  
Precipitation 0.06 in 0.15 in 2.68 in (2003)
Month to date precipitation 0.86 1.54  
Year to date precipitation 25.00 17.91  
Snow  
Snow 0.00 in 0.00 in 0.00 in (2014)
Month to date snowfall 0.0 0.0  
Since 1 June snowfall 0.0 0.0  
Since 1 July snowfall 27.9 17.7  
Snow Depth 0.00 in    
Sea Level Pressure  
Sea Level Pressure 29.83 in    
Wind  
Wind Speed 7 mph (West)    
Max Wind Speed 17 mph    
Max Gust Speed 22 mph    
Visibility 10 miles    
Events Rain    
T = Trace of Precipitation, MM = Missing Value Source: NWS Daily Summary

Daily Weather History Graph

Daily Weather History Graph

Search for Another Location

Airport or City:

Trip Planner

Search our weather history database for the weather conditions in past years. The results will help you decide how hot, cold, wet, or windy it might be!

Date:

Astronomy

Jun. 10, 2013 Rise Set
Actual Time 5:36 AM CDT 8:26 PM CDT
Civil Twilight 5:04 AM CDT 8:57 PM CDT
Nautical Twilight 4:24 AM CDT 9:37 PM CDT
Astronomical Twilight 3:38 AM CDT 10:23 PM CDT
Moon 7:24 AM CDT (6/10) 9:54 PM CDT (6/10)
Length of Visible Light 15h 53m
Length of Day
14h 49m
Waxing Crescent, 4% of the Moon is Illuminated
Jun 10
Waxing Crescent
Jun 16
First Quarter
Jun 23
Full
Jun 29
Last Quarter
Jul 8
New

Hourly Weather History & Observations

Time (CDT) Temp. Heat Index Dew Point Humidity Pressure Visibility Wind Dir Wind Speed Gust Speed Precip Events Conditions
12:51 AM 64.9 °F - 62.1 °F 90% 29.80 in 10.0 mi SSW 4.6 mph - N/A   Overcast
1:51 AM 64.9 °F - 61.0 °F 87% 29.79 in 10.0 mi SSW 9.2 mph - 0.06 in Rain Light Rain
2:51 AM 66.0 °F - 61.0 °F 84% 29.78 in 10.0 mi West 6.9 mph - 0.00 in Rain Light Rain
3:51 AM 64.9 °F - 62.1 °F 90% 29.78 in 10.0 mi SW 5.8 mph - 0.00 in   Overcast
4:51 AM 64.9 °F - 61.0 °F 87% 29.77 in 10.0 mi SW 3.5 mph - N/A   Mostly Cloudy
5:51 AM 64.9 °F - 61.0 °F 87% 29.79 in 10.0 mi SSW 3.5 mph - 0.00 in   Mostly Cloudy
6:51 AM 64.0 °F - 61.0 °F 90% 29.80 in 10.0 mi SSW 3.5 mph - N/A   Overcast
7:51 AM 66.0 °F - 61.0 °F 84% 29.80 in 10.0 mi WSW 9.2 mph - 0.00 in   Mostly Cloudy
8:51 AM 70.0 °F - 62.1 °F 76% 29.81 in 10.0 mi West 8.1 mph - N/A   Mostly Cloudy
9:51 AM 72.0 °F - 62.1 °F 71% 29.82 in 10.0 mi WNW 8.1 mph - N/A   Mostly Cloudy
10:51 AM 73.0 °F - 61.0 °F 66% 29.83 in 10.0 mi WNW 11.5 mph 18.4 mph N/A   Mostly Cloudy
11:51 AM 75.0 °F - 62.1 °F 64% 29.84 in 10.0 mi NW 11.5 mph 17.3 mph N/A   Mostly Cloudy
12:51 PM 77.0 °F - 62.1 °F 60% 29.85 in 10.0 mi WNW 15.0 mph 21.9 mph N/A   Scattered Clouds
1:51 PM 78.1 °F - 61.0 °F 56% 29.84 in 10.0 mi WNW 10.4 mph 20.7 mph N/A   Scattered Clouds
2:51 PM 79.0 °F - 61.0 °F 54% 29.84 in 10.0 mi NW 13.8 mph - N/A   Partly Cloudy
3:51 PM 80.1 °F 81.2 °F 62.1 °F 54% 29.85 in 10.0 mi NW 9.2 mph - N/A   Partly Cloudy
4:51 PM 81.0 °F 81.7 °F 61.0 °F 50% 29.86 in 10.0 mi NW 8.1 mph - N/A   Scattered Clouds
5:51 PM 78.1 °F - 61.0 °F 56% 29.86 in 10.0 mi WNW 8.1 mph - N/A   Scattered Clouds
6:51 PM 78.1 °F - 60.1 °F 54% 29.86 in 10.0 mi West 8.1 mph - N/A   Scattered Clouds
7:51 PM 75.9 °F - 61.0 °F 60% 29.88 in 10.0 mi NW 4.6 mph - N/A   Scattered Clouds
8:51 PM 75.0 °F - 61.0 °F 62% 29.88 in 10.0 mi Calm Calm - N/A   Partly Cloudy
9:51 PM 73.0 °F - 61.0 °F 66% 29.89 in 10.0 mi Calm Calm - N/A   Partly Cloudy
10:51 PM 71.1 °F - 61.0 °F 70% 29.90 in 10.0 mi Calm Calm - N/A   Clear
11:51 PM 69.1 °F - 61.0 °F 75% 29.91 in 10.0 mi Calm Calm - N/A   Clear